Spirit of St Louis, MO

8:30 PM CDT on March 26, 2017 (GMT -0500)
Spirit Of Saint Louis

Weather History for KSUS - October, 2013

Change the Weather History Date:

Monday, October 14, 2013

  Actual Average Record
Temperature  
Mean Temperature 52 °F -  
Max Temperature 66 °F 67 °F 84 °F (1996)
Min Temperature 39 °F 41 °F 28 °F (2006)
Degree Days  
Heating Degree Days 12    
Growing Degree Days 2 (Base 50)    
Moisture  
Dew Point 43 °F    
Average Humidity 68    
Maximum Humidity 93    
Minimum Humidity 40    
Precipitation  
Precipitation 0.00 in - - ()
Sea Level Pressure  
Sea Level Pressure 30.22 in    
Wind  
Wind Speed 2 mph (ESE)    
Max Wind Speed 7 mph    
Max Gust Speed -    
Visibility 10 miles    
Events      
Averages and records for this station are not official NWS values.
T = Trace of Precipitation, MM = Missing Value Source: NWS Daily Summary

Daily Weather History Graph

Daily Weather History Graph

Search for Another Location

Airport or City:

Trip Planner

Search our weather history database for the weather conditions in past years. The results will help you decide how hot, cold, wet, or windy it might be!

Date:

Astronomy

Oct. 14, 2013 Rise Set
Actual Time 7:11 AM CDT 6:25 PM CDT
Civil Twilight 6:44 AM CDT 6:52 PM CDT
Nautical Twilight 6:13 AM CDT 7:22 PM CDT
Astronomical Twilight 5:42 AM CDT 7:53 PM CDT
Moon 3:52 PM CDT (10/14) 2:30 AM CDT (10/14)
Length of Visible Light 12h 07m
Length of Day
11h 14m
Waxing Gibbous, 79% of the Moon is Illuminated
Oct 14
Waxing Gibbous
Oct 18
Full
Oct 26
Last Quarter
Nov 3
New
Nov 9
First Quarter

Hourly Weather History & Observations

Time (CDT) Temp. Dew Point Humidity Pressure Visibility Wind Dir Wind Speed Gust Speed Precip Events Conditions
12:54 AM 44.1 °F 39.9 °F 85% 30.34 in 10.0 mi Calm Calm - N/A   Clear
1:54 AM 44.1 °F 39.9 °F 85% 30.34 in 10.0 mi Calm Calm - N/A   Clear
2:54 AM 43.0 °F 39.0 °F 86% 30.35 in 10.0 mi Calm Calm - N/A   Clear
3:54 AM 41.0 °F 37.9 °F 89% 30.32 in 10.0 mi Calm Calm - N/A   Clear
4:54 AM 41.0 °F 39.0 °F 93% 30.32 in 10.0 mi Calm Calm - N/A   Clear
5:54 AM 41.0 °F 39.0 °F 93% 30.32 in 10.0 mi Calm Calm - N/A   Clear
6:54 AM 39.9 °F 37.9 °F 93% 30.33 in 10.0 mi Calm Calm - N/A   Mostly Cloudy
7:54 AM 42.1 °F 39.9 °F 92% 30.33 in 10.0 mi Calm Calm - N/A   Clear
8:54 AM 50.0 °F 43.0 °F 77% 30.32 in 10.0 mi Calm Calm - N/A   Clear
9:54 AM 55.0 °F 39.9 °F 57% 30.32 in 10.0 mi East 5.8 mph - N/A   Mostly Cloudy
10:54 AM 59.0 °F 37.0 °F 44% 30.28 in 10.0 mi East 6.9 mph - N/A   Overcast
11:54 AM 63.0 °F 39.0 °F 41% 30.26 in 10.0 mi East 6.9 mph - N/A   Overcast
12:54 PM 64.9 °F 39.9 °F 40% 30.23 in 10.0 mi Variable 5.8 mph - N/A   Clear
1:54 PM 66.0 °F 42.1 °F 42% 30.20 in 10.0 mi East 3.5 mph - N/A   Overcast
2:54 PM 66.9 °F 43.0 °F 42% 30.16 in 10.0 mi East 6.9 mph - N/A   Overcast
3:54 PM 66.9 °F 44.1 °F 44% 30.14 in 10.0 mi ESE 3.5 mph - N/A   Overcast
4:54 PM 66.0 °F 44.1 °F 45% 30.13 in 10.0 mi East 5.8 mph - N/A   Overcast
5:54 PM 61.0 °F 50.0 °F 67% 30.12 in 10.0 mi Calm Calm - N/A   Clear
6:54 PM 57.9 °F 48.9 °F 72% 30.12 in 10.0 mi Calm Calm - N/A   Clear
7:54 PM 57.0 °F 51.1 °F 81% 30.11 in 10.0 mi Calm Calm - N/A   Clear
8:54 PM 61.0 °F 48.0 °F 62% 30.09 in 10.0 mi ESE 4.6 mph - N/A   Clear
9:54 PM 62.1 °F 50.0 °F 65% 30.09 in 10.0 mi ESE 5.8 mph - N/A   Clear
10:54 PM 62.1 °F 52.0 °F 70% 30.07 in 10.0 mi SE 3.5 mph - N/A   Clear
11:54 PM 62.1 °F 53.1 °F 72% 30.05 in 10.0 mi East 3.5 mph - N/A   Overcast